World > North America > United States > California

Hourly Bonita, CA Regional Weather

Feedback E-mail the Weather

Quick WX

Bonita, CA Weather Maps

°F °C°F °C
Bonita Weather Map
UTC Time: 6/29/2022, 01:01
Your Time:

Bonita, CA Regional Weather

Expires:202206290100;;356846
ASUS46 KSGX 290011
RWRSGX

SAN DIEGO HOURLY WEATHER ROUNDUP
NATIONAL WEATHER SERVICE SAN DIEGO CA
500 PM PDT TUE JUN 28 2022

NOTE: "FAIR" INDICATES FEW OR NO CLOUDS BELOW 12,000 FEET WITH NO 
SIGNIFICANT WEATHER AND/OR OBSTRUCTIONS TO VISIBILITY.


CAZ042-043-060-061-PZZ750-775-290100-

GREATER SAN DIEGO AREA
  
CITY           SKY/WX    TMP DP  RH WIND       PRES   REMARKS
SAN DIEGO AP   MOSUNNY   75  64  68 VRB5      29.98F                  
BROWN FIELD    SUNNY     81  58  45 W9        29.97F                  
MIRAMAR MCAS   SUNNY     82  58  43 SW7       29.97F                  
MONTGOMERY FLD SUNNY     82  55  39 W7        29.98F                  
GILLESPIE FLD  SUNNY     88  57  35 W9        29.97F                  
LEMON GROVE      N/A     80  60  50 SW8       29.94F                  

$$

NORTH SAN DIEGO COUNTY
  
CITY           SKY/WX    TMP DP  RH WIND       PRES   REMARKS
CAMP PENDLETON SUNNY     79  63  57 SW9       29.96F                  
OCEANSIDE AP   SUNNY     77  65  66 SW8       29.96F                  
OCEANSIDE HBR    N/A     69  66  89 W6        30.02F                  
VISTA            N/A     83  58  42 SW3       29.95S                  
CARLSBAD       SUNNY     76  61  59 SW8       29.97F                  
ENCINITAS        N/A     82  68  62 S1          N/A                   
LA JOLLA SCRIP   N/A     71  64  78 CALM      29.97F                  
FALLBROOK      FAIR      82  57  42 SW9G17    29.98F                  
ESCONDIDO        N/A     89  57  33 SW5       29.94S                  
SAN MARCOS       N/A     83  58  41 NW10      29.98F                  
RANCHO BERNARD   N/A     84  49  29 S2        29.94F                  
POWAY            N/A     90  56  31 W5        29.97S                  

$$

EAST SAN DIEGO COUNTY
  
CITY           SKY/WX    TMP DP  RH WIND       PRES   REMARKS
RAMONA         NOT AVBL                                               
SANTEE           N/A     91  58  32 CALM      29.91F                  
EL CAJON         N/A     87  60  40 N3        29.83F                  
ALPINE           N/A     91  56  30 W3        30.09F                  
DESCANSO N       N/A     87  52  29 SW5       29.91F                  

$$

ORANGE COUNTY AND THE LOS ANGELES BASIN
  
CITY           SKY/WX    TMP DP  RH WIND       PRES   REMARKS
JOHN WAYNE AP  MOSUNNY   77  61  57 S15       29.95F                  
LAGUNA BEACH     N/A     79  69  71 N2        29.96F                  
LAKE FOREST FR   N/A     94  46  19 NW6       29.81F                  
SANTA ANA        N/A     82  63  52 S9        29.93F                  
HUNTINGTON BCH   N/A     74  66  76 CALM      29.95F                  
LOS ALAMITOS   MOSUNNY   74  58  57 S12       29.93F                  
FULLERTON      SUNNY     85  55  35 S10       29.94S                  
LONG BEACH     SUNNY     80  54  40 SE8       29.95F                  
L.A. AP        MOSUNNY   71  60  68 W12       29.97S                  
L.A. DOWNTOWN  SUNNY     82  59  45 VRB3      29.94F                  

$$

THE INLAND EMPIRE
  
CITY           SKY/WX    TMP DP  RH WIND       PRES   REMARKS
CORONA         SUNNY     95  48  20 W20       29.93S                  
UPLAND AP      FAIR      93  41  16 W16       29.98S                  
CHINO          MOSUNNY   98  44  15 W18       29.94F                  
ONTARIO        MOSUNNY   96  44  16 SW14G22   29.95F                  
SAN BERNARDINO SUNNY     99  36  11 W14G20    29.95F                  
RIVERSIDE AP   SUNNY     96  42  15 W21G29    29.93F                  
MORENO VALLEY    N/A     98  43  15 W6        29.93S                  
MARCH ARB      SUNNY     97  33  11 NW17      29.97F                  
HORSETHIEF CYN   N/A    100  42  13 W7        29.86F HX  96           
PERRIS           N/A     96  27   8 NW8       29.95S                  
LAKE ELSINORE    N/A     96  47  18 SW2       29.82S                  
HEMET AP       FAIR      95  44  17 SW16      29.97F                  
FRENCH VALLEY  FAIR      93  43  17 SW14G20   29.98S                  
TEMECULA         N/A     93  49  21 SW3       29.90F                  

$$

SAN BERNARDINO AND RIVERSIDE COUNTY MOUNTAINS
  
CITY           SKY/WX    TMP DP  RH WIND       PRES   REMARKS
BIG BEAR AP    PTSUNNY   77  37  24 SW8       30.35F                  
BIG BEAR LAKE    N/A     77  42  28 W3        29.91F                  
WRIGHTWOOD       N/A     83  46  27 SW7       29.76F                  
ANGELUS OAKS     N/A     83  48  29 CALM      29.81F                  
IDYLLWILD        N/A     86  45  24 E2        29.82F                  
TORO PEAK        N/A     66  38  34 NW2         N/A                   

$$

SOUTHERN DESERT INCLUDING THE COACHELLA VALLEY
  
CITY           SKY/WX    TMP DP  RH WIND       PRES   REMARKS
PALM SPRINGS   SUNNY    111  53  14 VRB6      29.81F HX 109           
THOUSAND PALMS   N/A    110  59  18 E7        29.73F HX 111           
INDIO            N/A    110  58  18 SE3       29.75F HX 110           
THERMAL        SUNNY    111  55  16 SE12      29.74F HX 110           
BORREGO AP     FAIR     109  48  13 NE7G13    29.79F HX 106           
OCOTILLO WELLS   N/A    114  58  16 N3        29.75F HX 115           
CANEBRAKE        N/A    106  50  15 W12       29.71F HX 103           
BLYTHE         CLOUDY   110  56  17 S12G22    29.78F HX 109           
IMPERIAL AP    SUNNY    110  57  17 MISG      29.76F HX 110           
EL CENTRO NAS  MOSUNNY  111  58  17 NE8       29.77F HX 111           
YUMA AZ        MOSUNNY  108  60  21 VRB6      29.79F HX 109           

$$

UPPER DESERT
  
CITY           SKY/WX    TMP DP  RH WIND       PRES   REMARKS
VICTORVILLE AP SUNNY    100  45  15 S22       30.02F HX  96           
HESPERIA         N/A     91  43  18 S12       29.66S                  
APPLE VALLEY     N/A     95  52  23 NW16      29.87F                  
PALMDALE       SUNNY     98  38  12 SW24G32   30.00S                  
LANCASTER      SUNNY     99  37  11 W26       29.99S                  
EDWARDS AFB    MOSUNNY  101  43  13 W25G32    29.94F HX  96           
DAGGETT        MOSUNNY  107  42  11 W13G25    29.88F HX 102           
29 PALMS N     MOSUNNY  101  45  15 W7        29.99F HX  97           
NEEDLES        SUNNY    111  47  12 S13G22    29.81F HX 107           

$$

REGIONAL REPORTS
  
CITY           SKY/WX    TMP DP  RH WIND       PRES   REMARKS
SANTA BARBARA  SUNNY     70  59  68 VRB7      29.97S                  
SANDBERG       SUNNY     89  27  10 MISG      30.20S                  
LAS VEGAS NV   MOSUNNY  104  46  14 S15G25    29.90F HX 100           
PHOENIX AZ     MOSUNNY  105  53  17 SE5       29.84F HX 103           
TIJUANA        SUNNY     82  55  39 NW12      30.00F                  
ENSENADA NW      N/A     73  32  22 W9        29.95S                  

$$

OFFSHORE ISLANDS
  
CITY           SKY/WX    TMP DP  RH WIND       PRES   REMARKS
CATALINA ARPT  SUNNY     85  42  22 SW5       30.03F                  
SAN CLEMENTE I MOSUNNY   66  60  81 SW13      29.99F                  
SAN NICOLAS IS SUNNY     65  57  75 E3        29.97F                  

$$

MARINE AND OFFSHORE BUOY REPORTS
  
STATION/POSITION SKY/WX   TEMP    WIND        PRES    VSBY  SWELL
                          AIR SEA DIR/SP/G                  HT/PER/DIR
                          (F)     (DE
649
G/KT/KT) (MB)    (MI)  (FT/S/D)
TANNER BANKS               59 62  290/ 10/ 14 1014.5F         3/320/ 7
S CLEMENTE BASIN           66 71  270/  8/ 10 1014.6F         3/150/10
SAN NICOLAS IS.               62                N/A           2/190/17
W. S. BARBARA CH           58 59  310/ 16/ 19 1014.6F         3/300/ 7
M. S. BARBARA CH           62 66  250/  8/ 10 1015.6F         2/290/ 6
S. MONICA BASIN            63 68  250/  6/  8 1014.7F         3/150/10
S PEDRO CHANNEL               68                N/A           2/170/11
OCEANSIDE OFFSHR              73                N/A           2/200/18
TORREY PINES OTR              74                N/A           2/190/17
SAN DIEGO BAY                 73              1015.1F
IMPERIAL BEACH             68 68                N/A           2/240/17
POINT LOMA SOUTH              74                N/A           2/200/18

$$

  

SKY/WX - Weather  TMP - Temperature  DP - Dew Point  RH - Humidity
WIND - Wind Direction/Speed PRES - Barometric Pressure VSB - Visibility
WCI - Wind Chill Index E13G22 Wind - East Wind 13 mph/Gusts of 22 mph

Trending Headlines

Bonita Radar Loop



Bonita Quick Facts


National Two Day Weather Forecast


E-mail the Bonita Weather Forecast

Voice your opinion or tell us about page issues...